Regional Weather Roundup
Issued by NWS

Home | Current Version | Previous Version | Text Only | Print | Product List | Glossary On
Versions: 1 2 3 4 5 6 7 8 9 10 11 12 13 14 15 16 17 18 19 20 21 22 23 24 25 26 27 28 29 30 31 32 33 34 35 36 37 38 39 40 41 42 43 44 45 46 47 48 49 50
000
ASUS44 KBMX 020510
RWRAL

ALABAMA REGIONAL WEATHER ROUNDUP
NATIONAL WEATHER SERVICE BIRMINGHAM AL
1200 AM CDT THU JUL 02 2015

NOTE: "FAIR" INDICATES FEW OR NO CLOUDS BELOW 12,000 FEET
WITH NO SIGNIFICANT WEATHER AND/OR OBSTRUCTIONS TO VISIBILITY.

THE REMARK "TC" DENOTES TEMPERATURE IN DEGREES CELSIUS.

ALZ001>011-014-016>018-020-020600-
NORTH ALABAMA

CITY           SKY/WX    TMP DP  RH WIND       PRES   REMARKS
MUSCLE SHOALS  CLEAR     72  69  90 S3        30.00R
HUNTSVILLE     CLOUDY    72  68  87 SE3       30.00F
DECATUR        PTCLDY    70  68  93 CALM      30.00S
HALEYVILLE     FAIR      71  70  97 CALM      30.03F
GADSDEN        MOCLDY   N/A N/A N/A CALM      30.01F
$$

ALZ012-013-022-023-030>036-040>044-020600-
WEST CENTRAL ALABAMA

CITY           SKY/WX    TMP DP  RH WIND       PRES   REMARKS
TUSCALOOSA     CLEAR     77  72  84 S7        30.01F
$$

ALZ015-024>027-033>036-040>044-020600-
CENTRAL ALABAMA

CITY           SKY/WX    TMP DP  RH WIND       PRES   REMARKS
BIRMINGHAM     CLOUDY    71  71 100 SE3       30.03F
MONTGOMERY     CLOUDY    75  64  68 E6        30.07F
SHELBY CO ARPT CLOUDY    71  70  96 S3        30.03S
MAXWELL AFB    CLOUDY    73  66  80 E5        30.05F
GREENVILLE     FAIR      73  69  87 CALM      30.06F
$$

ALZ019-021-028-029-037-038-045>048-020600-
EAST CENTRAL ALABAMA

CITY           SKY/WX    TMP DP  RH WIND       PRES   REMARKS
ANNISTON       CLOUDY    70  67  90 CALM      30.04F
ALEXANDER CITY NOT AVBL
AUBURN         CLOUDY    66  63  88 NW10      30.12S
$$

ALZ051>064-020600-
SOUTHWEST ALABAMA

CITY           SKY/WX    TMP DP  RH WIND       PRES   REMARKS
MOBILE         PTCLDY    72  71  97 SW5       30.08F
BROOKLEY FIELD MOCLDY    73  71  93 CALM      30.09F
EVERGREEN      MOCLDY    72  70  93 SW5       30.08F
$$

ALZ049-050-065>069-020600-
SOUTHEAST ALABAMA

CITY           SKY/WX    TMP DP  RH WIND       PRES   REMARKS
DOTHAN         CLEAR     76  67  73 W8        30.12S
OZARK          CLEAR     73  68  85 SW5       30.09S
TROY           MOCLDY    74  70  87 W3        30.09S
EUFAULA        FAIR      78  69  73 W5        30.06S
$$


USA.gov is the U.S. government's official web portal to all federal, state and local government web resources and services.